Location: Montreal
(45.5000°N, 73.5833°W)
Time: 20:37:25
(UTC-04:00)

OTV 5 (USA 277) - Pass Details

Date: 10 October 2017
Orbit: 404 x 417 km, 43.0° (Epoch: 07 September)

Event Time Altitude Azimuth Distance (km) Brightness Sun altitude
Rises 19:43:45 0° 227° (SW) 2,346 ? -15.9°
Reaches altitude 10° 19:46:05 10° 214° (SW) 1,486 ? -16.3°
Enters shadow 19:48:51 25° 158° (SSE) 883 ? -16.8°
